Hebbronville, TX

12:01 PM CDT on June 29, 2017 (GMT -0500)
Hogg County

Weather History for KHBV - September, 2012

Change the Weather History Date:

Saturday, September 29, 2012

  Actual Average (KALI) Record (KALI)
Temperature  
Mean Temperature 81 °F -  
Max Temperature 90 °F 87 °F 100 °F (2005)
Min Temperature 72 °F 65 °F 55 °F (1996)
Cooling Degree Days 16    
Growing Degree Days 31 (Base 50)    
Moisture  
Dew Point 71 °F    
Average Humidity 76    
Maximum Humidity 95    
Minimum Humidity 51    
Precipitation  
Precipitation 1.14 in - - ()
Sea Level Pressure  
Sea Level Pressure 29.84 in    
Wind  
Wind Speed 10 mph (SW)    
Max Wind Speed 22 mph    
Max Gust Speed 29 mph    
Visibility 9 miles    
Events Rain , Thunderstorm    
Averages and records for this station are not official NWS values.
T = Trace of Precipitation, MM = Missing Value Source: NWS Daily Summary

Daily Weather History Graph

Daily Weather History Graph

Search for Another Location

Airport or City:

Trip Planner

Search our weather history database for the weather conditions in past years. The results will help you decide how hot, cold, wet, or windy it might be!

Date:

Astronomy

Sep. 29, 2012 Rise Set
Actual Time 7:26 AM CDT 7:22 PM CDT
Civil Twilight 7:03 AM CDT 7:46 PM CDT
Nautical Twilight 6:36 AM CDT 8:13 PM CDT
Astronomical Twilight 6:09 AM CDT 8:40 PM CDT
Moon 7:00 PM CDT 6:57 AM CDT
Length of Visible Light 12h 42m
Length of Day
11h 55m
Full, 100% of the Moon is Illuminated
Sep 29
Full
Sep 29
Full
Oct 8
Last Quarter
Oct 15
New
Oct 21
First Quarter

Hourly Weather History & Observations

Time (CDT) Temp. Heat Index Dew Point Humidity Pressure Visibility Wind Dir Wind Speed Gust Speed Precip Events Conditions
12:15 AM 78.1 °F - 74.3 °F 88% 29.89 in 10.0 mi ESE 12.7 mph - N/A   Light Drizzle
12:55 AM 77.7 °F - 74.8 °F 91% 29.87 in 7.0 mi ESE 12.7 mph 19.6 mph 0.01 in   Overcast
1:15 AM 77.5 °F - 74.8 °F 91% 29.87 in 7.0 mi ESE 12.7 mph 19.6 mph N/A   Overcast
1:35 AM 77.5 °F - 74.8 °F 91% 29.88 in 7.0 mi ESE 11.5 mph - N/A Thunderstorm Unknown
1:55 AM 77.4 °F - 75.0 °F 92% 29.87 in 7.0 mi SE 12.7 mph 17.3 mph N/A   Light Drizzle
2:15 AM 77.4 °F - 75.0 °F 92% 29.88 in 7.0 mi SE 12.7 mph 16.1 mph N/A Thunderstorm Unknown
2:35 AM 77.4 °F - 75.2 °F 93% 29.90 in 7.0 mi SSE 9.2 mph - 0.01 in Rain , Thunderstorm Thunderstorms and Rain
2:55 AM 76.8 °F - 74.3 °F 92% 29.92 in 7.0 mi WSW 16.1 mph - 0.03 in Rain , Thunderstorm Heavy Thunderstorms and Rain
3:15 AM 73.2 °F - 70.2 °F 90% 29.92 in 1.5 mi WSW 17.3 mph 25.3 mph 0.47 in Rain , Thunderstorm Heavy Thunderstorms and Rain
3:55 AM 72.9 °F - 70.7 °F 93% 29.90 in 7.0 mi SW 5.8 mph - 0.97 in Rain , Thunderstorm Rain
4:15 AM 73.4 °F - 71.2 °F 93% 29.89 in 5.0 mi Calm Calm - 0.06 in Rain , Thunderstorm Rain
4:35 AM 73.8 °F - 71.4 °F 92% 29.88 in 7.0 mi NNE 3.5 mph - 0.10 in Rain , Thunderstorm Rain
4:55 AM 73.8 °F - 71.4 °F 92% 29.88 in 10.0 mi NNE 3.5 mph - 0.11 in Rain Light Rain
5:15 AM 74.1 °F - 71.6 °F 92% 29.88 in 10.0 mi Calm Calm - 0.01 in   Drizzle
5:35 AM 73.9 °F - 71.8 °F 93% 29.87 in 10.0 mi NE 4.6 mph - 0.01 in Rain Light Rain
5:55 AM 74.3 °F - 72.1 °F 93% 29.87 in 10.0 mi East 4.6 mph - 0.01 in   Mostly Cloudy
6:15 AM 74.5 °F - 72.3 °F 93% 29.86 in 10.0 mi East 5.8 mph - N/A   Overcast
6:35 AM 74.7 °F - 72.7 °F 94% 29.87 in 10.0 mi East 5.8 mph - N/A   Overcast
6:55 AM 75.2 °F - 73.2 °F 94% 29.88 in 10.0 mi East 4.6 mph - N/A   Overcast
7:15 AM 75.4 °F - 73.4 °F 94% 29.87 in 7.0 mi ESE 5.8 mph - N/A   Mostly Cloudy
7:35 AM 75.4 °F - 73.4 °F 94% 29.86 in 7.0 mi ESE 6.9 mph - N/A   Scattered Clouds
7:55 AM 75.4 °F - 73.8 °F 95% 29.86 in 4.0 mi SE 8.1 mph - N/A   Scattered Clouds
8:15 AM 75.9 °F - 74.3 °F 95% 29.86 in 4.0 mi SE 8.1 mph - N/A   Mostly Cloudy
8:35 AM 76.1 °F - 74.5 °F 95% 29.86 in 5.0 mi SSE 9.2 mph - N/A   Mostly Cloudy
8:55 AM 76.5 °F - 74.8 °F 95% 29.85 in 7.0 mi SSE 11.5 mph - N/A   Scattered Clouds
9:15 AM 77.0 °F - 74.8 °F 93% 29.86 in 10.0 mi SSE 11.5 mph - N/A   Scattered Clouds
9:35 AM 77.7 °F - 74.7 °F 90% 29.86 in 10.0 mi South 11.5 mph - N/A   Scattered Clouds
9:55 AM 79.0 °F - 74.7 °F 87% 29.86 in 10.0 mi South 12.7 mph 18.4 mph N/A   Mostly Cloudy
10:15 AM 79.9 °F - 74.5 °F 83% 29.86 in 10.0 mi SSW 11.5 mph 19.6 mph N/A   Mostly Cloudy
10:35 AM 79.9 °F - 73.8 °F 81% 29.86 in 10.0 mi South 12.7 mph - N/A   Scattered Clouds
10:55 AM 80.6 °F 85.5 °F 73.8 °F 80% 29.86 in 10.0 mi South 10.4 mph - 0.01 in   Mostly Cloudy
11:15 AM 81.5 °F 87.2 °F 73.9 °F 78% 29.86 in 10.0 mi SSW 9.2 mph - N/A   Mostly Cloudy
11:55 AM 83.1 °F 89.2 °F 73.2 °F 72% 29.85 in 10.0 mi SSW 8.1 mph - N/A   Overcast
12:15 PM 83.5 °F 89.7 °F 73.0 °F 71% 29.84 in 10.0 mi SSW 9.2 mph - N/A   Mostly Cloudy
12:35 PM 85.3 °F 92.2 °F 73.2 °F 67% 29.83 in 10.0 mi WSW 10.4 mph - N/A   Mostly Cloudy
12:55 PM 85.5 °F 92.2 °F 72.9 °F 66% 29.83 in 10.0 mi SSW 8.1 mph - N/A   Scattered Clouds
1:15 PM 86.2 °F 93.4 °F 73.2 °F 65% 29.82 in 10.0 mi SW 9.2 mph - N/A   Scattered Clouds
1:35 PM 86.5 °F 93.8 °F 73.0 °F 64% 29.80 in 10.0 mi SW 6.9 mph - N/A   Scattered Clouds
1:55 PM 87.1 °F 94.9 °F 73.6 °F 64% 29.80 in 10.0 mi SW 9.2 mph - N/A   Scattered Clouds
2:35 PM 88.9 °F 97.1 °F 73.4 °F 60% 29.78 in 10.0 mi WSW 8.1 mph - N/A   Scattered Clouds
2:55 PM 89.1 °F 96.5 °F 72.3 °F 58% 29.77 in 10.0 mi WSW 6.9 mph - N/A   Scattered Clouds
3:15 PM 89.1 °F 96.5 °F 72.5 °F 58% 29.76 in 10.0 mi SW 6.9 mph - N/A   Scattered Clouds
3:35 PM 90.0 °F 97.4 °F 72.5 °F 56% 29.75 in 10.0 mi West 6.9 mph - N/A   Scattered Clouds
3:55 PM 90.1 °F 96.8 °F 71.2 °F 54% 29.75 in 10.0 mi West 9.2 mph - N/A   Clear
4:15 PM 90.5 °F 96.0 °F 70.2 °F 51% 29.75 in 10.0 mi West 10.4 mph - N/A   Scattered Clouds
4:55 PM 90.3 °F 95.7 °F 70.2 °F 51% 29.73 in 10.0 mi WNW 9.2 mph - N/A   Scattered Clouds
5:35 PM 89.2 °F 94.5 °F 70.3 °F 53% 29.73 in 10.0 mi WNW 12.7 mph 17.3 mph N/A   Mostly Cloudy
5:55 PM 87.8 °F 93.4 °F 70.7 °F 57% 29.74 in 10.0 mi NW 15.0 mph 18.4 mph N/A   Scattered Clouds
6:15 PM 86.2 °F 91.1 °F 70.5 °F 59% 29.75 in 10.0 mi WNW 10.4 mph - N/A   Scattered Clouds
6:55 PM 85.3 °F 89.4 °F 69.4 °F 59% 29.77 in 10.0 mi NW 12.7 mph 18.4 mph N/A   Scattered Clouds
7:15 PM 84.2 °F 88.4 °F 70.0 °F 62% 29.78 in 10.0 mi NW 11.5 mph - N/A   Scattered Clouds
7:35 PM 83.1 °F 87.6 °F 70.7 °F 66% 29.79 in 10.0 mi NW 8.1 mph - N/A   Clear
7:55 PM 82.6 °F 86.6 °F 70.0 °F 66% 29.80 in 10.0 mi WNW 12.7 mph 17.3 mph N/A   Clear
8:15 PM 82.4 °F 84.8 °F 66.9 °F 59% 29.80 in 10.0 mi NW 13.8 mph 21.9 mph N/A   Clear
8:35 PM 81.5 °F 83.4 °F 65.5 °F 58% 29.81 in 10.0 mi NW 13.8 mph - N/A   Clear
8:55 PM 80.4 °F 82.3 °F 65.3 °F 60% 29.81 in 10.0 mi NW 13.8 mph - N/A   Clear
9:15 PM 79.3 °F - 65.8 °F 63% 29.82 in 10.0 mi WNW 11.5 mph - N/A   Clear
9:35 PM 78.6 °F - 66.0 °F 65% 29.83 in 10.0 mi WNW 8.1 mph 21.9 mph N/A   Clear
9:55 PM 77.9 °F - 66.2 °F 67% 29.84 in 10.0 mi NW 13.8 mph 21.9 mph N/A   Clear
10:15 PM 77.4 °F - 66.2 °F 68% 29.85 in 10.0 mi WNW 9.2 mph - N/A   Scattered Clouds
10:35 PM 76.5 °F - 64.8 °F 67% 29.86 in 10.0 mi WNW 19.6 mph 28.8 mph N/A   Scattered Clouds
10:55 PM 75.7 °F - 62.6 °F 64% 29.86 in 10.0 mi NW 17.3 mph 26.5 mph N/A   Clear
11:15 PM 75.2 °F - 61.9 °F 63% 29.85 in 10.0 mi NW 20.7 mph 28.8 mph N/A   Clear
11:35 PM 74.7 °F - 61.9 °F 64% 29.85 in 10.0 mi NW 21.9 mph 28.8 mph N/A   Clear
11:55 PM 74.1 °F - 62.1 °F 66% 29.85 in 10.0 mi NW 15.0 mph 24.2 mph N/A   Clear